This is the latest recevied weather packets stored in our database for station/object YC0TBU-3. If no packets are shown the sender has not sent any weather packets the latest 10 day(s).
| Time | Temp. | Humidity | Pressure | Rain* | Wind** | Luminosity | Snow |
|---|---|---|---|---|---|---|---|
| 1777622059 | 25° C | 54% | 1010.3 hPa | - | - | - | - |
| 1777621354 | 26.11° C | 52% | 1011.7 hPa | - | - | - | - |
| 1777620649 | 25.56° C | 51% | 1011.2 hPa | - | - | - | - |
| 1777619944 | 25.56° C | 51% | 1010.2 hPa | - | - | - | - |
| 1777619239 | 25.56° C | 49% | 1011 hPa | - | - | - | - |
| 1777618533 | 25.56° C | 46% | 1010.8 hPa | - | - | - | - |
| 1777617828 | 26.11° C | 49% | 1011 hPa | - | - | - | - |
| 1777617123 | 25.56° C | 51% | 1012 hPa | - | - | - | - |
| 1777616419 | 25° C | 53% | 1010.6 hPa | - | - | - | - |
| 1777615714 | 25° C | 48% | 1008.9 hPa | - | - | - | - |
| 1777615008 | 25.56° C | 47% | 1010.4 hPa | - | - | - | - |
| 1777614303 | 26.11° C | 49% | 1011.9 hPa | - | - | - | - |
| 1777613598 | 25.56° C | 51% | 1011.2 hPa | - | - | - | - |
| 1777612893 | 25.56° C | 51% | 1011.6 hPa | - | - | - | - |
| 1777612188 | 25.56° C | 51% | 1011.9 hPa | - | - | - | - |
| 1777611484 | 25.56° C | 52% | 1012.6 hPa | - | - | - | - |
| 1777610779 | 25.56° C | 52% | 1014.4 hPa | - | - | - | - |
| 1777610074 | 25° C | 52% | 1014.2 hPa | - | - | - | - |
| 1777609368 | 25° C | 52% | 1013.5 hPa | - | - | - | - |
| 1777608663 | 25° C | 52% | 1014.1 hPa | - | - | - | - |
| 1777607964 | 25° C | 53% | 1014.1 hPa | - | - | - | - |
| 1777607237 | 25° C | 53% | 1015.2 hPa | - | - | - | - |
| 1777606532 | 25° C | 53% | 1014.6 hPa | - | - | - | - |
| 1777605827 | 24.44° C | 53% | 1015.5 hPa | - | - | - | - |
| 1777605122 | 24.44° C | 53% | 1013.2 hPa | - | - | - | - |
* Rain since midnight (hover to see other rain measurements)
** Current wind speed in m/s (hover to see current wind gust speed)